Hurricane Symbol View the latest observations near Atlantic Remnants Of Alberto.

Station TCNW1 - 9446484 - Tacoma, WA Image indicating link to RSS feed of recent meteorological observations for station TCNW1


Conditions at TCNW1 as of
(3:18 pm PDT)
2218 GMT on 06/20/2024:
     

Click on the graph icon in the table below to see a time series plot of the last five days of that observation.

5-day plot - Atmospheric Pressure Atmospheric Pressure (PRES):29.97 in
NOS Water Level Observation Network Water Level
Previous observations
TIME
(PDT)
5-day plot - Wind Direction
WDIR
 
5-day plot - Wind Speed
WSPD
kts
5-day plot - Wind Gust
GST
kts
5-day plot - Wave Height
WVHT
ft
5-day plot - Dominant Wave Period
DPD
sec
5-day plot - Average Wave Period
APD
sec
5-day plot - Mean Wave Direction
MWD
 
5-day plot - Atmospheric Pressure
PRES
in
5-day plot - Pressure Tendency
PTDY
in
5-day plot - Air Temperature
ATMP
°F
5-day plot - Water Temperature
WTMP
°F
5-day plot - Dew Point
DEWP
°F
5-day plot - Salinity
SAL
psu
5-day plot - Visibility
VIS
nmi
5-day plot - Tide (above MLLW)
TIDE
ft
2024-06-20 03:12 pm-------29.97-------
2024-06-20 03:06 pm-------29.97-------
2024-06-20 03:00 pm-------29.97-0.05- 54.3----
2024-06-20 02:54 pm-------29.98-- 54.3----
2024-06-20 02:48 pm-------29.98-- 54.3----
2024-06-20 02:42 pm-------29.98-- 54.3----
2024-06-20 02:36 pm-------29.98-- 54.3----
2024-06-20 02:30 pm-------29.98-- 54.3----
2024-06-20 02:24 pm-------29.99-- 54.3----
2024-06-20 02:18 pm-------29.99-- 54.5----
2024-06-20 02:12 pm-------29.99-- 54.5----
2024-06-20 02:06 pm-------29.99-- 54.5----
2024-06-20 02:00 pm-------29.99-0.04- 54.5----
2024-06-20 01:54 pm-------30.00-- 54.7----
2024-06-20 01:48 pm-------30.00-- 54.7----
2024-06-20 01:42 pm-------30.00-- 54.7----
2024-06-20 01:36 pm-------30.00-- 54.7----
2024-06-20 01:30 pm-------30.01-- 54.7----
2024-06-20 01:24 pm-------30.01-- 54.9----
2024-06-20 01:18 pm-------30.01-- 54.9----
2024-06-20 01:12 pm-------30.01-- 55.0----
2024-06-20 01:06 pm-------30.01-- 55.2----
2024-06-20 01:00 pm-------30.01-0.02- 55.6----
2024-06-20 12:54 pm-------30.01-- 55.6----
2024-06-20 12:48 pm-------30.01-- 55.6----
2024-06-20 12:42 pm-------30.01-- 55.6----
2024-06-20 12:36 pm-------30.02-- 55.4----
2024-06-20 12:30 pm-------30.02-- 55.4----
2024-06-20 12:24 pm-------30.02-- 55.4----
2024-06-20 12:18 pm-------30.02-- 55.2----
2024-06-20 12:12 pm-------30.02-- 55.0----
2024-06-20 12:06 pm-------30.02-- 54.9----
2024-06-20 12:00 pm-------30.02-0.02- 54.5----
2024-06-20 11:54 am-------30.02-- 54.3----
2024-06-20 11:48 am-------30.02-- 54.3----
2024-06-20 11:42 am-------30.02-- 54.1----
2024-06-20 11:36 am-------30.03-- 54.0----
2024-06-20 11:30 am-------30.03-- 54.5----
2024-06-20 11:24 am-------30.03-- 54.7----
2024-06-20 11:18 am-------30.03-- 54.7----
2024-06-20 11:12 am-------30.03-- 54.9----
2024-06-20 11:06 am-------30.03-- 55.0----
2024-06-20 11:00 am-------30.03-0.01- 55.0----
2024-06-20 10:54 am-------30.03-- 55.2----
2024-06-20 10:48 am-------30.03-- 55.4----
2024-06-20 10:42 am-------30.03-- 55.4----
2024-06-20 10:36 am-------30.03-- 55.4----
2024-06-20 10:30 am-------30.03-- 55.6----
2024-06-20 10:24 am-------30.03-- 55.6----
2024-06-20 10:18 am-------30.03-- 55.6----
2024-06-20 10:12 am-------30.03-- 55.6----
2024-06-20 10:06 am-------30.03-- 55.6----
2024-06-20 10:00 am-------30.03+0.00- 55.4----
2024-06-20 09:54 am-------30.04-- 55.4----
2024-06-20 09:48 am-------30.04-- 55.4----
2024-06-20 09:42 am-------30.04-- 55.2----
2024-06-20 09:36 am-------30.04-- 55.2----
2024-06-20 09:30 am-------30.04-- 55.2----
2024-06-20 09:24 am-------30.04-- 55.0----
2024-06-20 09:18 am-------30.04-- 55.0----
2024-06-20 09:12 am-------30.04-- 55.0----
2024-06-20 09:06 am-------30.04-- 55.2----
2024-06-20 09:00 am-------30.04+0.02- 54.5----
2024-06-20 08:54 am-------30.04-- 54.0----
2024-06-20 08:48 am-------30.04-- 54.0----
2024-06-20 08:42 am-------30.04-- 54.0----
2024-06-20 08:36 am-------30.04-- 54.0----
2024-06-20 08:30 am-------30.04-- 54.0----
2024-06-20 08:24 am-------30.04-- 54.0----
2024-06-20 08:18 am-------30.04-- 54.0----
2024-06-20 08:12 am-------30.04-- 54.0----
2024-06-20 08:06 am-------30.04-- 54.0----
2024-06-20 08:00 am-------30.04+0.03- 54.0----
2024-06-20 07:54 am-------30.04-- 54.0----
2024-06-20 07:48 am-------30.04-- 54.0----
2024-06-20 07:42 am-------30.04-- 54.0----
2024-06-20 07:36 am-------30.04-- 54.0----
2024-06-20 07:30 am-------30.03-- 54.0----
2024-06-20 07:24 am-------30.03-- 54.1----
2024-06-20 07:18 am-------30.03-- 54.1----
2024-06-20 07:12 am-------30.03-- 54.1----
2024-06-20 07:06 am-------30.03-- 54.1----
2024-06-20 07:00 am-------30.03+0.02- 54.0----
2024-06-20 06:54 am-------30.03-- 54.0----
2024-06-20 06:48 am-------30.03-- 53.8----
2024-06-20 06:42 am-------30.03-- 53.6----
2024-06-20 06:36 am-------30.03-- 53.4----
2024-06-20 06:30 am-------30.03-- 53.2----
2024-06-20 06:24 am-------30.03-- 53.2----
2024-06-20 06:18 am-------30.03-- 53.2----
2024-06-20 06:12 am-------30.02-- 53.2----
2024-06-20 06:06 am-------30.02-- 53.2----
2024-06-20 06:00 am-------30.02+0.02- 53.2----
2024-06-20 05:54 am-------30.02-- 53.2----
2024-06-20 05:48 am-------30.02-- 53.2----
2024-06-20 05:42 am-------30.02-- 53.1----
2024-06-20 05:36 am-------30.02-- 53.1----
2024-06-20 05:30 am-------30.02-- 53.1----
2024-06-20 05:24 am-------30.02-- 53.1----
2024-06-20 05:18 am-------30.02-- 53.1----
2024-06-20 05:12 am-------30.02-- 53.1----
2024-06-20 05:06 am-------30.02-- 53.1----
2024-06-20 05:00 am-------30.01+0.01- 53.1----
2024-06-20 04:54 am-------30.01-- 53.1----
2024-06-20 04:48 am-------30.01-- 53.1----
2024-06-20 04:42 am-------30.01-- 53.1----
2024-06-20 04:36 am-------30.01-- 53.1----
2024-06-20 04:30 am-------30.01-- 53.1----
2024-06-20 04:24 am-------30.01-- 53.1----
2024-06-20 04:18 am-------30.01-- 53.1----
2024-06-20 04:12 am-------30.01-- 53.1----
2024-06-20 04:06 am-------30.01-- 53.1----
2024-06-20 04:00 am-------30.01+0.01- 53.1----
2024-06-20 03:54 am-------30.01-- 53.1----
2024-06-20 03:48 am-------30.01-- 53.1----
2024-06-20 03:42 am-------30.01-- 53.1----
2024-06-20 03:36 am-------30.01-- 53.1----
2024-06-20 03:30 am-------30.01-- 53.1----
2024-06-20 03:24 am-------30.01-- 53.1----
2024-06-20 03:18 am-------30.01-- 53.1----
2024-06-20 03:12 am-------30.01-- 53.1----
2024-06-20 03:06 am-------30.01-- 53.1----
2024-06-20 03:00 am-------30.01+0.01- 53.1----
2024-06-20 02:54 am-------30.00-- 53.1----
2024-06-20 02:48 am-------30.00-- 53.1----
2024-06-20 02:42 am-------30.00-- 53.1----
2024-06-20 02:36 am-------30.00-- 53.1----
2024-06-20 02:30 am-------30.00-- 53.1----
2024-06-20 02:24 am-------30.00-- 53.1----
2024-06-20 02:18 am-------30.00-- 53.1----
2024-06-20 02:12 am-------30.00-- 53.1----
2024-06-20 02:06 am-------30.00-- 53.1----
2024-06-20 02:00 am-------30.00+0.01- 53.1----
2024-06-20 01:54 am-------30.00-- 53.1----
2024-06-20 01:48 am-------30.00-- 53.1----
2024-06-20 01:42 am-------30.00-- 53.1----
2024-06-20 01:36 am-------30.00-- 53.1----
2024-06-20 01:30 am-------30.00-- 53.1----
2024-06-20 01:24 am-------30.00-- 53.1----
2024-06-20 01:18 am-------30.00-- 53.1----
2024-06-20 01:12 am-------30.00-- 53.1----
2024-06-20 01:06 am-------30.00-- 53.1----
2024-06-20 01:00 am-------30.00+0.01- 53.1----
2024-06-20 12:54 am-------30.00-- 53.1----
2024-06-20 12:48 am-------30.00-- 53.1----
2024-06-20 12:42 am-------29.99-- 53.1----
2024-06-20 12:36 am-------29.99-- 53.1----
2024-06-20 12:30 am-------30.00-- 53.1----
2024-06-20 12:24 am-------30.00-- 53.1----
2024-06-20 12:18 am-------30.00-------
2024-06-20 12:12 am-------30.00-- 53.1----
2024-06-20 12:06 am-------30.00-- 53.1----
2024-06-20 12:00 am-------30.00+0.03- 53.1----
2024-06-19 11:54 pm-------29.99-- 53.1----
2024-06-19 11:48 pm-------29.99-------
2024-06-19 11:42 pm-------29.99-- 53.1----
2024-06-19 11:36 pm-------29.99-- 53.1----
2024-06-19 11:30 pm-------29.99-- 53.1----
2024-06-19 11:24 pm-------29.99-- 53.1----
2024-06-19 11:18 pm-------29.99-- 53.1----
2024-06-19 11:12 pm-------29.99-- 53.1----
2024-06-19 11:06 pm-------29.99-- 53.1----
2024-06-19 11:00 pm-------29.99+0.03- 53.1----
2024-06-19 10:54 pm-------29.99-- 53.1----
2024-06-19 10:48 pm-------29.99-------
2024-06-19 10:42 pm-------29.99-- 53.1----
2024-06-19 10:36 pm-------29.99-- 53.1----
2024-06-19 10:30 pm-------29.98-- 53.1----
2024-06-19 10:24 pm-------29.98-- 53.1----
2024-06-19 10:18 pm-------29.98-------
2024-06-19 10:12 pm-------29.98-- 53.1----
2024-06-19 10:06 pm-------29.98-- 53.1----
2024-06-19 10:00 pm-------29.98+0.03- 53.1----
2024-06-19 09:54 pm-------29.98-- 53.1----
2024-06-19 09:48 pm-------29.98-- 53.1----
2024-06-19 09:42 pm-------29.98-- 53.1----
2024-06-19 09:36 pm-------29.98-- 53.1----
2024-06-19 09:30 pm-------29.97-- 53.1----
2024-06-19 09:24 pm-------29.97-- 53.1----
2024-06-19 09:18 pm-------29.97-- 53.1----
2024-06-19 09:12 pm-------29.97-- 53.1----
2024-06-19 09:06 pm-------29.97-- 53.1----
2024-06-19 09:00 pm-------29.97+0.01- 53.1----
2024-06-19 08:54 pm-------29.97-- 53.1----
2024-06-19 08:48 pm-------29.97-- 53.1----
2024-06-19 08:42 pm-------29.96-- 53.1----
2024-06-19 08:36 pm-------29.97-- 53.1----
2024-06-19 08:30 pm-------29.96-- 53.1----
2024-06-19 08:24 pm-------29.96-- 53.1----
2024-06-19 08:18 pm-------29.96-- 53.1----
2024-06-19 08:12 pm-------29.96-- 53.1----
2024-06-19 08:06 pm-------29.96-- 53.1----
2024-06-19 08:00 pm-------29.96-0.01- 53.1----
2024-06-19 07:54 pm-------29.96-- 53.1----
2024-06-19 07:48 pm-------29.96-- 53.1----
2024-06-19 07:42 pm-------29.96-- 53.1----
2024-06-19 07:36 pm-------29.96-- 53.1----
2024-06-19 07:30 pm-------29.96-- 53.1----
2024-06-19 07:24 pm-------29.95-- 53.1----
2024-06-19 07:18 pm-------29.95-- 53.1----
2024-06-19 07:12 pm-------29.95-- 53.1----
2024-06-19 07:06 pm-------29.95-- 53.1----
2024-06-19 07:00 pm-------29.95-0.02- 53.1----
2024-06-19 06:54 pm-------29.95-- 53.1----
2024-06-19 06:48 pm-------29.95-- 53.1----
2024-06-19 06:42 pm-------29.96-- 53.1----
2024-06-19 06:36 pm-------29.96-- 53.1----
2024-06-19 06:30 pm-------29.95-- 53.1----
2024-06-19 06:24 pm-------29.95-- 53.1----
2024-06-19 06:18 pm-------29.96-------
2024-06-19 06:12 pm-------29.95-- 53.1----
2024-06-19 06:06 pm-------29.96-- 53.1----
2024-06-19 06:00 pm-------29.96-0.03- 53.1----
2024-06-19 05:54 pm-------29.96-- 53.1----
2024-06-19 05:48 pm-------29.96-- 53.1----
2024-06-19 05:42 pm-------29.96-- 53.1----
2024-06-19 05:36 pm-------29.96-- 53.1----
2024-06-19 05:30 pm-------29.96-- 53.1----
2024-06-19 05:24 pm-------29.96-- 53.1----
2024-06-19 05:18 pm-------29.96-- 53.1----
2024-06-19 05:12 pm-------29.96-- 53.1----
2024-06-19 05:06 pm-------29.96-- 53.1----
2024-06-19 05:00 pm-------29.97-0.03- 53.1----
2024-06-19 04:54 pm-------29.97-- 53.1----
2024-06-19 04:48 pm-------29.97-- 53.1----
2024-06-19 04:42 pm-------29.97-- 53.1----
2024-06-19 04:36 pm-------29.97-- 53.1----
2024-06-19 04:30 pm-------29.97-- 53.1----
2024-06-19 04:24 pm-------29.97-- 53.1----
2024-06-19 04:18 pm-------29.97-- 53.1----
2024-06-19 04:12 pm-------29.97-- 53.1----
2024-06-19 04:06 pm-------29.97-- 53.1----
2024-06-19 04:00 pm-------29.97-0.04- 53.1----
2024-06-19 03:54 pm-------29.97-- 53.1----
2024-06-19 03:48 pm-------29.97-- 53.1----
2024-06-19 03:42 pm-------29.97-- 53.1----
2024-06-19 03:36 pm-------29.98-- 53.1----
2024-06-19 03:30 pm-------29.98-- 53.1----
2024-06-19 03:24 pm-------29.98-- 53.1----
2024-06-19 03:18 pm-------29.98-------
2024-06-19 03:12 pm-------29.98-------
2024-06-19 03:06 pm-------29.98-------
2024-06-19 03:00 pm-------29.98-0.04- 52.9----
2024-06-19 02:54 pm-------29.98-- 52.9----